Temperature
18 18 18 18 18 18 17 17 17 17 17 17 17 17 17 16 16 16 17 17 17 17 17 17 17 17 17 17 17 16 16 16 16 16 16 16 16 16 16 16 16 16 16
18 18 18 18 18 17 17 17 17 17 17 17 17 17 17 17 16 16 16 16 17 17 17 16 17 17 17 17 17 16 16 16 16 16 16 16 16 16 16 16 16 16 16
18 18 18 18 17 17 17 17 17 17 17 17 17 16 16 16 16 16 16 16 16 16 16 16 16 17 16 16 17 16 16 16 16 16 16 16 16 16 16 16 15 15 15
17 18 18 18 17 17 17 17 17 17 17 17 17 16 16 16 16 16 16 16 16 16 16 16 16 16 16 16 16 16 16 16 16 16 16 16 16 15 15 15 15 15 15
17 17 18 18 17 17 17 17 17 17 17 17 17 16 16 16 16 16 16 16 16 16 16 16 16 16 16 16 16 16 16 16 16 16 16 16 15 15 15 15 15 15 15
18 17 18 17 17 17 17 17 17 17 17 17 17 17 16 16 16 16 16 16 16 16 16 16 16 16 16 16 16 16 16 16 16 16 16 16 15 15 15 15 15 15 15
18 18 17 17 17 17 17 17 17 17 17 17 17 17 17 17 17 16 16 16 16 16 16 16 16 16 16 16 16 16 16 16 16 16 16 15 15 15 15 15 15 15 15
18 18 18 17 17 17 17 17 17 17 17 17 17 17 18 17 16 17 17 16 16 16 16 16 16 16 16 16 16 16 16 16 16 16 16 15 15 15 15 15 15 15 15
18 18 18 17 17 17 17 17 17 17 17 17 17 18 18 19 18 17 17 17 16 16 16 16 16 16 16 16 16 16 16 16 16 15 15 15 15 15 15 15 14 14 15
18 18 18 18 17 17 17 17 17 17 17 17 17 17 17 18 18 18 17 17 16 16 16 16 16 16 16 16 16 16 16 16 15 15 15 15 15 15 15 14 14 14 14
18 18 17 18 17 17 17 17 17 17 17 17 17 17 17 17 17 17 18 17 17 17 16 16 16 16 16 16 16 16 16 16 15 15 15 15 15 15 14 14 14 14 14
18 18 17 18 17 17 17 17 17 17 17 17 17 17 17 17 18 17 17 17 17 17 16 16 16 16 16 16 15 16 16 15 15 15 15 15 14 14 14 14 14 14 14
18 18 18 18 18 18 18 17 17 17 17 17 17 17 17 17 17 17 17 17 17 17 16 16 16 16 16 15 15 16 15 15 15 15 15 15 14 14 14 14 14 14 13
18 18 18 18 18 18 17 17 17 17 17 17 17 17 17 17 17 17 17 17 17 17 17 17 16 16 16 15 15 15 15 15 15 15 15 14 14 14 14 14 14 13 13
18 18 18 18 18 18 17 17 17 17 17 17 17 17 17 17 17 17 17 17 17 17 17 17 16 16 15 15 15 15 15 15 15 15 14 14 14 14 14 14 13 13 13
18 18 18 18 17 17 17 17 17 17 17 17 17 17 16 17 17 16 16 16 16 17 17 17 16 16 15 15 15 15 15 15 15 14 14 14 14 14 13 13 13 13 13
18 18 18 18 18 17 17 17 17 17 16 16 16 16 16 17 16 16 16 16 16 16 16 16 16 16 15 15 15 15 14 14 14 14 14 14 14 13 13 13 13 13 13
18 18 18 18 17 17 17 17 17 17 16 16 16 16 16 16 16 16 16 16 16 16 16 16 16 16 15 15 15 15 14 14 14 14 14 14 13 13 13 13 13 12 12
19 18 18 18 17 17 17 17 17 17 17 17 17 17 17 16 16 16 16 16 16 16 16 16 16 16 15 15 15 14 14 14 13 13 13 13 13 13 13 13 12 12 12
18 18 18 18 18 17 17 17 17 17 17 17 17 17 17 16 16 16 16 16 16 16 16 16 16 16 15 15 14 14 14 14 13 13 13 13 13 13 13 13 12 12 12
18 18 18 18 18 17 17 17 17 17 17 17 17 17 16 17 17 16 16 16 16 16 16 16 15 15 15 15 15 14 14 13 13 13 13 12 12 12 12 12 12 12 12
18 18 18 18 17 17 17 17 17 17 17 17 16 16 16 17 16 16 16 16 16 16 15 15 15 15 15 15 14 14 14 13 13 13 13 12 12 12 12 12 12 12 12
18 18 18 17 17 17 17 17 17 17 16 16 16 16 16 16 16 16 16 16 16 16 16 15 15 15 15 15 14 14 14 13 13 13 12 12 12 12 12 12 12 12 11
18 18 18 17 17 17 17 17 17 17 16 16 16 16 16 16 16 16 16 15 15 15 15 15 15 15 14 14 14 14 14 13 13 12 12 12 12 12 12 12 12 12 11
17 17 17 17 17 17 17 17 17 17 16 16 16 16 15 15 15 16 15 15 15 15 15 15 15 15 14 14 14 13 13 13 12 12 12 12 12 12 11 11 11 11 11
17 17 17 17 17 17 17 17 16 16 16 16 16 16 16 15 15 15 15 15 14 15 14 14 14 14 14 14 14 13 13 12 12 12 12 12 12 11 11 11 11 11 11
Wind_Speed
4 5 4 4 5 6 6 6 6 7 7 7 7 6 6 6 5 5 7 8 6 5 5 5 4 4 4 5 5 5 5 5 5 5 5 6 7 7 6 6 7 7 8
5 4 5 4 5 5 6 6 7 6 6 6 6 6 5 5 5 5 5 7 7 5 5 4 4 4 4 4 4 4 5 5 5 6 6 6 7 7 7 7 7 8 8
5 4 4 5 5 6 6 6 6 6 6 6 6 5 4 4 4 4 4 4 5 6 5 4 4 4 4 4 4 4 5 5 5 6 6 6 7 7 7 8 7 8 8
5 4 4 5 5 5 5 5 5 5 5 5 4 4 4 4 3 3 3 4 3 3 5 5 4 3 3 3 4 3 4 5 5 5 6 7 7 7 7 8 8 8 8
5 4 4 5 5 4 4 4 5 4 5 5 4 4 3 3 3 3 3 3 3 2 3 7 6 4 4 3 3 3 4 4 4 4 5 6 7 7 7 8 8 8 8
4 4 4 4 4 4 4 4 5 4 4 4 3 3 2 2 1 1 2 2 3 3 2 3 4 6 6 4 3 3 4 4 5 4 4 5 6 7 6 7 7 7 8
4 3 3 4 3 4 4 5 4 5 3 4 3 3 2 2 2 1 2 1 2 2 2 2 2 2 4 7 6 4 4 4 4 4 5 4 5 5 6 7 7 7 8
3 4 3 3 4 4 4 4 3 2 2 2 1 1 1 3 3 1 2 2 2 2 2 3 2 2 2 2 5 6 5 5 4 4 4 4 5 5 6 6 7 7 8
3 2 3 3 3 3 4 4 4 3 2 2 2 2 1 0 1 2 1 1 1 2 2 2 3 3 3 3 2 5 6 5 4 3 3 4 4 5 6 6 6 6 7
3 3 3 3 3 3 3 4 3 3 3 2 2 2 2 1 1 1 2 2 2 2 3 3 2 3 3 2 2 3 5 5 4 3 3 3 4 4 4 5 5 5 5
3 3 4 4 4 3 3 3 3 4 3 3 2 2 2 2 3 2 1 1 2 2 2 3 2 1 1 2 2 3 5 4 4 3 3 3 2 3 3 3 4 4 4
3 4 4 4 5 4 4 4 4 5 4 4 4 3 3 3 2 2 2 2 2 1 1 1 2 1 2 2 3 5 5 4 4 4 4 3 2 2 3 2 2 3 3
3 3 3 4 4 4 4 4 4 4 4 4 5 4 3 3 2 2 2 3 3 2 2 2 2 2 2 2 3 6 5 5 5 4 4 4 3 2 2 1 0 1 1
2 3 4 4 4 4 4 4 4 4 4 5 5 4 3 3 3 3 3 3 3 3 3 2 2 3 2 3 3 5 4 7 6 5 5 4 3 3 2 1 1 0 0
3 3 4 4 4 4 4 4 4 4 4 5 5 5 5 4 4 4 4 4 4 4 3 2 2 3 3 2 4 4 4 7 7 6 6 5 4 3 3 2 2 3 3
2 3 4 4 4 4 4 5 5 5 5 5 5 5 5 5 4 5 5 5 5 5 5 2 2 2 3 3 4 4 3 8 8 8 7 6 5 4 3 3 2 3 3
3 4 4 4 4 5 5 5 6 5 6 6 6 6 7 7 6 5 5 6 5 5 5 4 2 2 3 4 4 4 5 5 6 9 8 7 6 4 4 3 3 3 3
3 3 4 4 5 5 5 6 7 6 7 7 7 7 7 6 7 7 6 7 6 6 6 5 4 3 4 5 4 5 4 5 4 9 9 8 7 6 5 5 4 4 3
3 3 3 4 5 5 5 5 6 6 6 7 7 7 7 7 8 7 7 7 6 6 6 6 5 3 4 4 4 5 5 4 5 8 10 10 9 8 7 6 6 5 4
4 3 4 4 4 5 5 5 5 6 6 6 7 7 7 7 7 7 7 7 6 6 6 6 5 5 4 4 5 5 5 5 5 5 6 7 9 10 9 9 8 7 7
4 4 4 4 4 5 4 4 5 6 6 6 7 7 7 6 6 6 6 6 6 6 6 6 6 5 5 5 6 6 5 4 5 5 5 6 7 7 9 10 10 10 9
4 4 4 4 5 4 1 1 5 6 6 6 6 6 6 7 6 6 6 7 7 8 7 7 7 7 7 7 6 6 5 5 4 5 5 5 5 5 6 7 10 11 11
4 4 5 5 5 3 1 2 4 6 6 6 6 6 6 5 5 6 6 8 9 10 10 9 10 9 8 7 7 8 7 7 5 4 5 6 5 6 6 5 11 12 11
5 5 5 5 5 3 3 3 4 7 6 6 6 7 7 6 6 5 7 7 8 9 9 10 9 9 8 6 7 8 7 7 6 5 6 6 6 6 5 6 11 13 13
5 5 5 5 5 4 4 4 4 6 6 7 7 7 7 7 3 3 7 8 8 7 7 7 6 6 5 5 7 7 7 7 6 6 6 6 5 5 5 5 8 14 13
5 5 5 5 6 5 4 5 6 6 6 7 6 6 5 5 4 5 7 8 8 7 6 5 5 6 7 8 10 10 8 8 7 6 6 6 6 5 5 5 5 8 10
Wind_Direction
94 99 100 101 108 114 125 122 116 115 114 112 109 109 106 97 95 94 107 115 117 123 134 145 163 174 172 177 178 180 185 182 182 181 184 187 190 193 199 209 214 215 215
92 97 107 105 105 107 109 115 121 119 113 109 111 106 101 99 92 92 99 114 121 126 132 150 158 156 157 166 175 179 189 191 189 189 191 197 198 199 205 212 218 216 211
98 103 108 111 104 109 118 121 119 117 119 117 111 108 111 109 103 108 107 106 121 136 150 155 155 161 161 165 175 190 198 197 196 194 198 203 207 211 217 219 217 211 209
99 105 106 106 107 113 118 119 124 121 119 120 119 117 116 121 123 129 129 125 122 131 145 149 152 157 154 159 168 175 184 186 192 197 204 210 213 215 218 221 217 213 210
106 110 103 103 118 116 119 122 119 123 125 125 127 128 129 127 132 142 137 142 145 150 144 142 155 158 159 162 170 173 177 178 184 197 208 213 214 215 217 218 218 216 213
114 118 117 117 125 119 120 117 119 120 126 135 133 117 121 129 140 142 165 159 155 168 171 161 159 161 166 171 174 171 174 181 188 196 206 213 212 212 213 216 217 219 221
118 119 116 121 127 124 128 134 133 137 139 140 140 134 137 149 153 178 185 184 173 179 171 185 179 164 160 175 186 188 186 194 202 205 210 212 208 207 213 216 215 219 224
134 140 135 144 136 137 145 147 155 157 160 170 183 177 178 166 163 180 173 188 204 195 188 192 188 186 230 195 152 174 192 202 208 211 205 201 205 207 213 216 220 223 226
149 143 155 159 160 175 164 171 180 194 191 186 227 267 259 150 141 150 157 195 207 218 219 203 202 205 213 211 185 167 180 189 195 199 208 206 206 207 210 212 216 224 227
165 165 171 178 191 188 177 199 194 216 220 223 202 245 287 305 265 185 173 176 205 226 244 243 221 205 209 201 173 156 165 182 191 204 207 207 205 205 206 211 219 224 226
184 189 186 193 203 209 207 225 214 234 234 246 245 229 218 224 244 246 230 213 214 218 234 243 227 219 198 191 183 156 159 172 180 188 193 195 196 195 201 212 224 228 228
190 190 196 202 211 216 213 221 229 230 244 255 259 247 236 246 238 242 251 241 247 238 236 260 247 205 202 191 163 126 140 155 161 163 167 172 183 186 192 201 218 235 242
199 192 209 211 217 215 216 220 225 243 240 242 247 247 246 251 259 254 240 253 266 263 232 226 229 218 210 198 163 148 158 160 158 158 158 157 152 144 138 147 291 282 301
217 193 213 218 223 223 219 215 226 227 236 243 245 248 249 247 241 242 242 250 262 258 233 226 209 215 216 210 154 175 172 162 164 163 162 161 155 142 136 125 47 312 1
224 205 214 218 223 224 222 220 230 231 232 236 236 229 239 244 239 242 238 241 255 264 262 224 224 209 208 207 165 201 186 154 161 164 163 161 154 142 129 110 89 80 73
240 223 222 223 227 230 224 226 230 225 230 234 239 244 244 245 244 242 240 244 248 259 271 250 237 211 193 209 175 201 187 156 169 172 170 167 160 146 139 131 116 102 91
231 229 230 228 228 229 227 228 239 239 238 239 239 236 240 247 246 243 240 240 240 243 253 258 242 199 198 224 190 202 198 196 182 176 177 176 172 166 160 152 141 132 122
235 234 234 234 237 233 229 229 237 240 243 243 244 245 244 240 238 245 241 238 236 236 242 244 237 221 212 210 205 212 207 206 189 165 176 180 181 181 181 175 171 166 159
240 240 233 238 243 240 234 232 236 240 243 243 243 244 246 244 242 243 243 242 238 236 235 239 236 222 229 211 212 217 216 212 203 169 175 183 186 189 191 189 188 183 179
238 238 236 240 243 241 240 240 241 243 246 247 246 246 246 245 244 244 242 239 240 239 232 234 233 223 221 211 214 220 218 210 213 198 186 184 184 191 197 196 197 196 194
241 239 239 240 243 241 241 245 247 243 244 248 248 249 249 251 262 256 256 247 241 241 237 234 235 231 225 212 219 222 223 213 211 215 207 199 192 200 197 199 200 202 202
245 244 240 239 241 246 124 263 263 254 249 247 249 250 250 241 238 237 252 259 256 246 245 243 242 240 236 228 224 225 221 218 222 205 216 224 214 216 208 203 182 190 202
238 242 242 241 243 240 157 227 260 259 253 253 251 248 252 246 238 249 239 235 243 244 243 245 249 249 245 229 225 225 221 224 237 207 212 233 221 226 220 185 166 183 198
235 239 242 242 244 235 174 214 256 250 255 253 249 245 247 250 241 246 253 249 246 240 238 240 249 254 255 238 228 232 230 227 230 221 214 237 225 226 221 195 174 187 197
239 242 241 243 242 237 188 200 240 248 249 253 252 248 246 249 226 223 248 252 252 250 237 235 255 263 267 236 225 227 223 224 232 223 216 236 234 230 226 214 185 185 195
239 247 247 249 249 246 200 199 229 248 252 255 252 249 239 242 227 217 243 249 250 249 249 237 233 238 238 224 211 223 229 231 235 237 216 221 229 227 231 219 205 192 198
Height
1531 1531 1532 1532 1534 1534 1535 1536 1537 1538 1540 1541 1543 1545 1546 1548 1549 1550 1550 1550 1551 1552 1552 1553 1554 1554 1555 1555 1556 1556 1557 1557 1557 1557 1557 1558 1559 1560 1561 1562 1562 1563 1564
1532 1532 1533 1534 1535 1536 1537 1538 1539 1540 1542 1543 1544 1546 1547 1549 1549 1550 1551 1551 1551 1552 1553 1553 1554 1554 1554 1554 1555 1555 1556 1556 1556 1556 1556 1557 1558 1558 1559 1560 1560 1561 1562
1533 1534 1535 1536 1536 1537 1538 1539 1541 1542 1543 1544 1546 1547 1548 1549 1550 1550 1551 1552 1552 1552 1553 1553 1553 1554 1554 1554 1554 1555 1555 1555 1555 1555 1555 1556 1556 1557 1558 1558 1559 1560 1560
1535 1536 1536 1537 1538 1539 1540 1541 1542 1543 1544 1545 1546 1547 1548 1549 1550 1551 1552 1552 1553 1553 1553 1553 1553 1553 1554 1554 1554 1554 1554 1554 1554 1554 1554 1554 1555 1555 1556 1556 1557 1558 1558
1537 1538 1538 1539 1540 1541 1542 1543 1544 1545 1545 1546 1547 1548 1549 1549 1550 1551 1552 1552 1553 1553 1553 1553 1553 1553 1553 1553 1553 1553 1553 1553 1553 1553 1553 1553 1553 1554 1554 1554 1555 1555 1556
1538 1539 1540 1540 1542 1542 1543 1544 1544 1545 1546 1547 1548 1548 1549 1550 1550 1551 1552 1552 1553 1553 1553 1553 1552 1552 1552 1552 1552 1552 1552 1552 1552 1552 1552 1552 1552 1552 1552 1552 1552 1552 1553
1539 1540 1541 1541 1542 1544 1544 1545 1546 1547 1547 1548 1549 1549 1550 1550 1550 1550 1551 1552 1552 1553 1552 1552 1552 1552 1552 1551 1551 1551 1551 1551 1551 1550 1550 1550 1549 1549 1550 1550 1550 1550 1550
1540 1541 1541 1543 1543 1544 1544 1545 1546 1548 1549 1549 1550 1550 1550 1552 1550 1551 1551 1551 1551 1552 1551 1551 1551 1550 1550 1550 1550 1549 1549 1549 1549 1549 1548 1548 1547 1547 1547 1547 1547 1547 1547
1541 1541 1542 1543 1544 1545 1545 1546 1546 1547 1549 1549 1549 1550 1550 1549 1550 1551 1550 1550 1550 1550 1550 1550 1550 1549 1549 1549 1548 1548 1547 1547 1547 1547 1546 1546 1545 1545 1545 1544 1544 1544 1544
1541 1542 1542 1543 1543 1545 1545 1546 1547 1547 1548 1549 1549 1548 1549 1549 1550 1550 1550 1550 1549 1549 1549 1549 1549 1548 1547 1547 1546 1546 1546 1545 1545 1545 1545 1544 1543 1543 1542 1542 1542 1541 1541
1541 1542 1542 1542 1543 1544 1544 1545 1545 1546 1547 1548 1548 1548 1548 1548 1549 1549 1549 1549 1549 1548 1548 1548 1547 1546 1546 1545 1545 1544 1544 1543 1543 1543 1542 1542 1541 1541 1540 1540 1539 1539 1538
1541 1541 1541 1541 1542 1543 1543 1543 1544 1544 1545 1545 1546 1547 1547 1547 1548 1548 1547 1547 1548 1547 1546 1546 1545 1545 1544 1544 1543 1543 1542 1541 1541 1541 1540 1540 1539 1539 1538 1538 1537 1536 1535
1540 1540 1541 1540 1541 1540 1541 1541 1542 1543 1543 1543 1543 1545 1545 1545 1546 1546 1546 1546 1546 1545 1545 1544 1543 1543 1543 1543 1542 1541 1540 1540 1539 1539 1538 1538 1537 1537 1536 1535 1535 1534 1533
1539 1538 1538 1539 1539 1539 1539 1539 1540 1540 1540 1541 1541 1542 1542 1543 1543 1544 1544 1544 1544 1543 1543 1543 1542 1541 1541 1541 1540 1539 1538 1538 1537 1537 1536 1535 1535 1534 1534 1533 1533 1531 1531
1537 1536 1536 1536 1536 1537 1537 1537 1538 1537 1538 1538 1539 1539 1540 1541 1541 1541 1541 1541 1542 1541 1541 1540 1540 1539 1539 1538 1537 1537 1536 1535 1535 1535 1534 1533 1533 1532 1532 1531 1531 1530 1529
1534 1534 1534 1534 1534 1535 1535 1535 1535 1535 1535 1535 1536 1536 1536 1538 1538 1538 1538 1538 1538 1539 1538 1537 1537 1536 1536 1536 1535 1535 1534 1533 1533 1532 1532 1531 1531 1531 1530 1530 1529 1528 1527
1532 1532 1532 1532 1532 1532 1532 1532 1533 1533 1533 1533 1533 1533 1533 1534 1534 1535 1535 1535 1535 1535 1535 1534 1534 1533 1533 1533 1532 1532 1531 1531 1530 1530 1529 1529 1529 1528 1528 1528 1527 1526 1526
1530 1530 1529 1529 1530 1530 1529 1529 1530 1530 1530 1530 1530 1531 1531 1531 1531 1531 1531 1531 1531 1531 1531 1530 1530 1530 1529 1529 1529 1529 1529 1529 1528 1527 1527 1526 1526 1526 1526 1525 1525 1525 1524
1528 1528 1527 1527 1527 1527 1527 1527 1527 1527 1527 1527 1527 1527 1527 1527 1527 1528 1527 1528 1528 1528 1527 1527 1527 1527 1526 1526 1526 1526 1526 1526 1526 1525 1524 1524 1524 1524 1524 1523 1523 1522 1522
1526 1525 1525 1525 1525 1524 1524 1524 1524 1524 1524 1524 1524 1524 1524 1524 1524 1524 1524 1523 1523 1523 1523 1523 1523 1523 1523 1523 1523 1523 1523 1523 1523 1523 1522 1521 1521 1521 1521 1520 1520 1520 1520
1524 1523 1523 1522 1522 1522 1522 1521 1521 1521 1521 1521 1521 1521 1521 1521 1520 1520 1521 1520 1520 1520 1520 1520 1519 1519 1519 1518 1519 1519 1520 1520 1520 1520 1520 1519 1519 1518 1518 1517 1517 1518 1518
1521 1521 1520 1520 1520 1520 1519 1519 1518 1518 1518 1517 1517 1517 1517 1517 1517 1516 1516 1516 1516 1516 1516 1516 1515 1515 1515 1514 1515 1515 1516 1516 1516 1516 1516 1516 1516 1515 1515 1515 1514 1515 1515
1518 1518 1518 1517 1517 1517 1516 1516 1515 1515 1515 1514 1514 1513 1514 1514 1513 1513 1512 1512 1511 1511 1511 1511 1511 1511 1511 1510 1510 1510 1510 1511 1512 1512 1512 1512 1512 1512 1512 1512 1511 1511 1511
1515 1515 1515 1514 1514 1514 1513 1513 1512 1512 1511 1510 1510 1509 1509 1509 1509 1508 1508 1507 1507 1507 1506 1506 1506 1506 1506 1506 1506 1506 1506 1506 1507 1507 1507 1508 1509 1509 1509 1508 1508 1508 1508
1512 1512 1512 1511 1511 1510 1510 1509 1509 1508 1508 1507 1507 1506 1505 1505 1504 1504 1503 1502 1502 1502 1502 1501 1501 1501 1500 1500 1501 1501 1502 1502 1502 1503 1503 1504 1504 1505 1505 1504 1504 1504 1504
1508 1508 1508 1507 1507 1506 1506 1505 1505 1505 1504 1503 1503 1502 1501 1501 1500 1500 1499 1498 1497 1497 1497 1496 1496 1495 1495 1495 1495 1496 1496 1497 1498 1499 1499 1499 1500 1501 1501 1501 1501 1500 1500